FW5295 Weather Reports


Display with metric or nautical units.
time (UTC)temp
F
wind
direction
speed
MPH
gust
MPH
rain 1hr
in
rain 24hr
in
rain mn
in
humidity
%
barometer
mb
20260502193917 54 234 6.0 10.0 0.00 0.00 0.00 41 1017.1
20260502193423 54 257 0.0 6.0 0.00 0.00 0.00 43 1017.1
20260502192917 54 210 6.0 6.0 0.00 0.00 0.00 44 1017.1
20260502192418 53 281 4.0 6.0 0.00 0.00 0.00 49 1017.1
20260502191918 52 323 4.0 6.0 0.00 0.00 0.00 46 1017.5
20260502191417 53 0 1.0 7.0 0.00 0.00 0.00 46 1017.5
20260502190915 53 322 2.0 7.0 0.00 0.00 0.00 42 1017.5
20260502190644 54 288 3.0 7.0 0.00 0.00 0.00 50 1017.5
20260502185915 53 337 4.0 5.0 0.00 0.00 0.00 52 1017.5
20260502185414 51 34 2.0 5.0 0.00 0.00 0.00 47 1017.8
20260502184913 51 337 1.0 5.0 0.00 0.00 0.00 47 1017.8
20260502184417 51 358 1.0 4.0 0.00 0.00 0.00 46 1018.2
20260502183913 51 198 3.0 4.0 0.00 0.00 0.00 48 1018.2
20260502183413 51 288 1.0 4.0 0.00 0.00 0.00 45 1017.8
20260502182910 51 261 3.0 5.0 0.00 0.00 0.00 43 1018.2
20260502182643 52 156 2.0 7.0 0.00 0.00 0.00 44 1018.2
20260502181911 53 2 3.0 7.0 0.00 0.00 0.00 42 1018.2
20260502181409 52 47 6.0 7.0 0.00 0.00 0.00 49 1018.2
20260502180909 51 49 3.0 6.0 0.00 0.00 0.00 46 1018.2
20260502180410 51 84 1.0 6.0 0.00 0.00 0.00 47 1018.2
20260502170402 50 287 3.0 11.0 0.00 0.00 0.00 51 1018.8
20260502163859 49 286 2.0 6.0 0.00 0.00 0.00 48 1018.8
20260502163359 49 353 5.0 6.0 0.00 0.00 0.00 46 1019.2
20260502162858 49 214 3.0 5.0 0.00 0.00 0.00 54 1018.8
20260502162408 49 45 2.0 7.0 0.00 0.00 0.00 53 1018.8
20260502162359 49 272 2.0 7.0 0.00 0.00 0.00 53 1018.8
20260502161357 49 213 2.0 6.0 0.00 0.00 0.00 55 1018.8
20260502160855 49 331 2.0 8.0 0.00 0.00 0.00 52 1019.2
20260502160356 48 185 3.0 8.0 0.00 0.00 0.00 55 1019.2
20260502160125 48 47 3.0 6.0 0.00 0.00 0.00 53 1019.2
20260502151851 48 324 2.0 6.0 0.00 0.00 0.00 52 1019.2
20260502151837 48 262 3.0 5.0 0.00 0.00 0.00 51 1019.2
20260502150852 47 259 2.0 6.0 0.00 0.00 0.00 52 1019.2
20260502150352 48 356 1.0 6.0 0.00 0.00 0.00 54 1019.2
20260502150108 47 50 3.0 6.0 0.00 0.00 0.00 55 1019.2
20260502130337 39 335 0.0 2.0 0.00 0.00 0.00 79 1019.2
20260502123344 36 6 0.0 2.0 0.00 0.00 0.00 89 1019.2
20260502123335 36 320 1.0 2.0 0.00 0.00 0.00 88 1018.8
20260502122553 35 299 2.0 2.0 0.00 0.00 0.00 89 1019.2
20260502121832 35 337 0.0 2.0 0.00 0.00 0.00 90 1019.2
20260502121332 34 332 1.0 2.0 0.00 0.00 0.00 91 1018.8
20260502120830 33 334 1.0 2.0 0.00 0.00 0.00 91 1018.8
20260502120600 33 358 0.0 2.0 0.00 0.00 0.00 92 1018.8
20260502115829 33 338 0.0 2.0 0.00 0.00 0.00 92 1018.8
20260502115601 32 340 1.0 2.0 0.00 0.00 0.00 93 1018.8
20260502114828 32 329 0.0 2.0 0.00 0.00 0.00 93 1018.8
20260502114330 32 18 0.0 1.0 0.00 0.00 0.00 94 1018.8
20260502113827 31 22 0.0 1.0 0.00 0.00 0.00 94 1018.8
20260502113329 31 326 0.0 2.0 0.00 0.00 0.00 94 1018.5
20260502113043 31 332 1.0 2.0 0.00 0.00 0.00 94 1018.5
20260502112327 30 337 1.0 2.0 0.00 0.00 0.00 94 1018.8
20260502111553 30 44 0.0 1.0 0.00 0.00 0.00 94 1018.5
20260502110828 30 290 0.0 2.0 0.00 0.00 0.00 94 1018.5
20260502110338 30 329 0.0 2.0 0.00 0.00 0.00 94 1018.5
20260502110049 30 0 1.0 2.0 0.00 0.00 0.00 94 1018.5
20260502105547 30 345 1.0 2.0 0.00 0.00 0.00 94 1018.5
20260502104822 30 25 1.0 2.0 0.00 0.00 0.00 94 1018.5
20260502104323 30 5 1.0 2.0 0.00 0.00 0.00 94 1018.5
20260502103824 30 12 1.0 2.0 0.00 0.00 0.00 94 1018.2
20260502103322 30 19 1.0 2.0 0.00 0.00 0.00 94 1018.2
20260502102819 30 15 1.0 1.0 0.00 0.00 0.00 94 1018.5
20260502102321 30 26 1.0 1.0 0.00 0.00 0.00 94 1018.2
20260502102040 30 31 0.0 1.0 0.00 0.00 0.00 94 1018.5
20260502101319 30 14 0.0 1.0 0.00 0.00 0.00 93 1018.2
20260502100818 30 17 0.0 1.0 0.00 0.00 0.00 93 1018.2
20260502100320 30 13 0.0 1.0 0.00 0.00 0.00 93 1018.5
20260502091314 31 22 0.0 1.0 0.00 0.00 0.00 93 1018.5
20260502090811 31 32 0.0 1.0 0.00 0.00 0.00 93 1018.2
20260502090314 31 45 0.0 1.0 0.00 0.00 0.00 93 1018.5
20260502071301 31 40 0.0 1.0 0.00 0.02 0.00 94 1018.5
20260502070800 31 299 0.0 2.0 0.00 0.02 0.00 93 1018.5
20260502070741 31 21 0.0 2.0 0.00 0.02 0.00 93 1018.5
20260502065801 31 20 1.0 1.0 0.00 0.02 0.00 93 1018.5
20260502065258 31 38 0.0 2.0 0.00 0.02 0.00 93 1018.5
20260502065015 31 25 0.0 2.0 0.00 0.02 0.00 93 1018.5
20260502064257 32 9 1.0 2.0 0.00 0.02 0.00 94 1018.5
20260502063756 32 34 0.0 1.0 0.00 0.02 0.00 94 1018.2
20260502063258 32 55 0.0 1.0 0.00 0.02 0.00 94 1018.8
20260502062754 32 38 0.0 1.0 0.00 0.02 0.00 94 1018.8
20260502062255 32 55 0.0 1.0 0.00 0.02 0.00 94 1018.8
20260502062014 32 87 0.0 1.0 0.00 0.02 0.00 94 1018.8
20260502061254 32 58 0.0 1.0 0.00 0.02 0.00 94 1018.8
20260502061013 32 38 0.0 1.0 0.00 0.02 0.00 94 1018.8
20260502060513 32 66 0.0 1.0 0.00 0.02 0.00 94 1018.8
20260502055753 32 36 1.0 1.0 0.00 0.02 0.00 94 1018.8
20260502055253 32 60 0.0 1.0 0.00 0.02 0.00 94 1018.8
20260502055017 32 103 0.0 2.0 0.00 0.02 0.00 94 1018.8
20260502054253 32 44 0.0 2.0 0.00 0.02 0.00 93 1018.8
20260502053752 32 20 1.0 1.0 0.00 0.02 0.00 93 1018.8
20260502053250 32 89 0.0 0.0 0.00 0.02 0.00 93 1018.8
20260502052751 32 103 0.0 1.0 0.00 0.02 0.00 93 1018.8
20260502052249 33 103 0.0 1.0 0.00 0.02 0.00 93 1018.8
20260502051748 33 118 0.0 1.0 0.00 0.02 0.00 93 1018.8
20260502051248 33 51 0.0 1.0 0.00 0.02 0.00 93 1018.8
20260502050746 33 97 0.0 2.0 0.00 0.02 0.00 93 1018.8
20260502050247 33 113 0.0 2.0 0.00 0.02 0.00 93 1018.8
20260502045746 33 43 1.0 2.0 0.00 0.02 0.02 93 1018.8
20260502045246 33 39 1.0 2.0 0.00 0.02 0.02 93 1018.8
20260502044745 33 69 0.0 1.0 0.00 0.02 0.02 92 1018.8
20260502044247 33 148 1.0 2.0 0.00 0.02 0.02 92 1018.8
20260502043745 33 103 0.0 2.0 0.00 0.02 0.02 92 1018.8
20260502043244 33 119 0.0 2.0 0.00 0.02 0.02 92 1018.8
20260502042756 33 119 0.0 2.0 0.00 0.03 0.02 92 1018.8
20260502042508 33 131 0.0 2.0 0.00 0.03 0.02 92 1018.8
20260502041743 33 65 1.0 2.0 0.00 0.04 0.02 91 1018.8
20260502041259 33 103 0.0 2.0 0.00 0.04 0.02 91 1018.8
20260502040741 33 125 1.0 2.0 0.00 0.06 0.02 91 1018.8
20260502040241 33 102 1.0 2.0 0.00 0.07 0.02 90 1018.5
20260502035741 34 156 0.0 2.0 0.00 0.09 0.02 90 1018.8
20260502035506 34 89 1.0 1.0 0.00 0.10 0.02 90 1018.8
20260502034740 34 103 0.0 1.0 0.00 0.13 0.02 89 1018.8
20260502034240 34 89 0.0 2.0 0.00 0.14 0.02 89 1018.5
20260502033737 34 103 0.0 2.0 0.00 0.14 0.02 89 1018.8
20260502033238 34 154 2.0 2.0 0.00 0.14 0.02 88 1018.5
20260502032737 34 107 0.0 2.0 0.00 0.14 0.02 87 1018.5
20260502032237 35 92 2.0 2.0 0.00 0.14 0.02 87 1018.5
20260502032004 35 83 1.0 2.0 0.00 0.14 0.02 87 1018.5
20260502031238 35 84 1.0 2.0 0.00 0.14 0.02 86 1018.5
20260502030736 35 78 1.0 2.0 0.00 0.14 0.02 85 1018.5
20260502030237 35 104 1.0 2.0 0.00 0.14 0.02 85 1018.5
20260502025735 35 93 1.0 2.0 0.00 0.14 0.02 84 1018.5
20260502025233 36 99 1.0 2.0 0.00 0.14 0.02 84 1018.5
20260502024732 36 121 1.0 3.0 0.00 0.14 0.02 84 1018.5
20260502024233 36 113 2.0 3.0 0.00 0.14 0.02 85 1018.5
20260502023735 36 54 2.0 3.0 0.00 0.14 0.02 85 1018.2
20260502023232 36 70 2.0 4.0 0.00 0.14 0.02 85 1018.2
20260502022731 36 113 2.0 4.0 0.00 0.14 0.02 85 1018.2
20260502022232 36 100 3.0 4.0 0.00 0.14 0.02 86 1018.2
20260502021730 36 92 2.0 4.0 0.00 0.14 0.02 86 1018.2
20260502021230 37 131 2.0 4.0 0.00 0.14 0.02 86 1018.2
20260502020731 37 113 2.0 5.0 0.00 0.14 0.02 86 1018.2
20260502020228 37 94 2.0 5.0 0.00 0.14 0.02 86 1018.2
20260502015729 37 106 2.0 6.0 0.00 0.14 0.02 85 1018.2
20260502015229 37 73 3.0 6.0 0.00 0.14 0.02 85 1018.2
20260502014727 37 85 4.0 8.0 0.00 0.14 0.02 85 1017.8
20260502014228 37 100 4.0 9.0 0.00 0.14 0.02 84 1017.8
20260502013727 38 72 8.0 11.0 0.00 0.14 0.02 83 1017.8
20260502013446 38 67 5.0 11.0 0.00 0.15 0.02 82 1017.8
20260502012725 38 71 5.0 9.0 0.00 0.15 0.02 82 1017.5
20260502012226 38 50 3.0 11.0 0.00 0.15 0.02 80 1017.5
20260502011722 38 71 7.0 13.0 0.00 0.15 0.02 79 1017.1
20260502011224 39 74 8.0 13.0 0.00 0.16 0.02 79 1017.1
20260502010724 39 72 4.0 11.0 0.00 0.16 0.02 79 1017.1
20260502010223 39 82 5.0 11.0 0.00 0.16 0.02 79 1017.1
20260502005721 40 74 7.0 12.0 0.00 0.16 0.02 79 1017.1
20260502005223 40 70 7.0 13.0 0.00 0.16 0.02 79 1017.1
20260502004721 41 91 4.0 13.0 0.00 0.16 0.02 79 1016.7
20260502004452 42 102 6.0 10.0 0.00 0.16 0.02 77 1017.1
20260502003720 42 79 8.0 11.0 0.00 0.16 0.02 75 1017.1
20260502003221 43 50 6.0 11.0 0.00 0.16 0.02 75 1016.7
20260502002719 44 62 4.0 8.0 0.00 0.16 0.02 75 1016.7
20260502002218 44 66 5.0 8.0 0.00 0.16 0.02 75 1016.4
20260502001721 44 94 4.0 7.0 0.00 0.16 0.02 74 1016.7
20260502001219 44 110 2.0 7.0 0.00 0.16 0.02 74 1016.7
20260502000717 44 89 4.0 6.0 0.00 0.16 0.02 73 1016.7
20260502000218 44 84 3.0 6.0 0.00 0.16 0.02 73 1016.4
20260501235715 44 91 3.0 5.0 0.00 0.16 0.02 73 1016.4
20260501235216 44 82 4.0 5.0 0.00 0.16 0.02 73 1016.7
20260501234715 44 94 2.0 4.0 0.00 0.16 0.02 72 1016.4
20260501234216 44 105 2.0 6.0 0.00 0.16 0.02 70 1016.4
20260501233713 45 95 3.0 6.0 0.00 0.16 0.02 70 1016.4
20260501233433 45 96 0.0 4.0 0.00 0.16 0.02 70 1016.4
20260501232940 45 75 3.0 4.0 0.00 0.16 0.02 70 1016.4
20260501232213 45 57 2.0 5.0 0.00 0.16 0.02 73 1016.4
20260501231711 44 100 1.0 6.0 0.00 0.16 0.02 73 1016.4
20260501231211 44 83 4.0 6.0 0.00 0.17 0.02 75 1016.4
20260501230709 44 83 4.0 7.0 0.00 0.17 0.02 75 1016.4
20260501230438 44 91 4.0 7.0 0.00 0.17 0.02 76 1016.4
20260501225709 44 78 5.0 8.0 0.00 0.17 0.02 76 1016.7
20260501225435 44 69 5.0 8.0 0.00 0.17 0.02 74 1016.4
20260501224710 44 51 4.0 7.0 0.00 0.17 0.02 73 1016.7
20260501224208 44 112 4.0 10.0 0.00 0.17 0.02 74 1016.7
20260501224156 44 30 4.0 10.0 0.00 0.17 0.02 74 1016.7
20260501223433 44 62 6.0 13.0 0.00 0.18 0.02 73 1016.4
20260501222708 45 83 6.0 13.0 0.00 0.18 0.02 72 1016.4
20260501222206 45 80 8.0 12.0 0.00 0.18 0.02 73 1016.7
20260501221706 45 112 7.0 12.0 0.00 0.18 0.02 72 1016.7
20260501221205 45 72 6.0 12.0 0.00 0.18 0.02 71 1016.7
20260501220704 45 78 8.0 10.0 0.00 0.19 0.02 70 1016.4
20260501220206 46 73 9.0 10.0 0.00 0.19 0.02 70 1016.4
20260501215703 46 78 5.0 11.0 0.00 0.19 0.02 68 1016.4
20260501215203 47 82 10.0 11.0 0.00 0.20 0.02 63 1016.7
20260501214703 47 33 2.0 6.0 0.00 0.21 0.02 58 1016.7
20260501214205 47 249 0.0 7.0 0.00 0.21 0.02 61 1016.7
20260501213700 47 34 0.0 7.0 0.00 0.22 0.02 60 1016.4
20260501213421 47 227 0.0 5.0 0.00 0.22 0.02 61 1016.4
20260501212928 47 263 2.0 5.0 0.00 0.22 0.02 61 1016.4
20260501212201 47 63 4.0 5.0 0.00 0.23 0.02 61 1016.4
20260501211659 47 156 0.0 4.0 0.00 0.23 0.02 59 1016.4
20260501211201 47 24 2.0 6.0 0.00 0.23 0.02 59 1016.4
20260501210658 47 62 3.0 6.0 0.00 0.23 0.02 58 1016.4
20260501210159 47 193 1.0 4.0 0.00 0.23 0.02 59 1016.4
20260501205658 47 28 3.0 6.0 0.00 0.23 0.02 58 1016.4
20260501205425 47 284 1.0 6.0 0.00 0.23 0.02 57 1016.4
20260501204657 47 17 3.0 7.0 0.00 0.23 0.02 58 1016.4
20260501204156 47 52 0.0 7.0 0.00 0.23 0.02 57 1016.4
20260501203654 47 7 5.0 5.0 0.00 0.23 0.02 57 1016.4
20260501203158 47 23 2.0 4.0 0.00 0.23 0.02 55 1016.4
20260501202653 47 300 2.0 4.0 0.00 0.23 0.02 55 1016.4
20260501202156 48 211 2.0 5.0 0.00 0.23 0.02 60 1016.4
20260501201918 48 312 2.0 6.0 0.00 0.23 0.02 56 1016.7
20260501201153 47 94 4.0 6.0 0.00 0.23 0.02 57 1016.4
20260501200654 47 343 2.0 6.0 0.00 0.23 0.02 54 1016.4
20260501200154 47 337 2.0 5.0 0.00 0.23 0.02 55 1016.4
20260501195650 47 93 3.0 5.0 0.00 0.23 0.02 57 1016.7
20260501195153 47 30 2.0 5.0 0.00 0.23 0.02 59 1016.7
20260501194656 47 69 4.0 6.0 0.00 0.23 0.02 55 1016.4
20260501194650 47 0 1.0 6.0 0.00 0.23 0.02 58 1016.4